星链-5690 (STARLINK-5690 )

导读 | 星芒AI

STARLINK-5690 是 SpaceX Starlink 项目中的一颗低轨通信卫星,属于第 14 批组网发射的卫星之一。该卫星运行在约 550 公里的高度,旨在为全球用户提供高速互联网服务。Starlink 卫星采用先进推进系统和激光通信技术,以提升网络效率和减少延迟。STARLINK-5690 与其他 Starlink 卫星协同工作,支持偏远地区的宽带接入,推动全球互联网覆盖的扩展。

基本信息
目录编号:
55480
目录名称:
STARLINK-5690
国际标识:
2023-015AH
轨道中心:
EARTH
卫星名称:
星链-5690
卫星全名:
星链-5690 (STARLINK-5690 )
卫星状态:
在轨 (已飞行1006 天)
发射日期:
2023-02-02 UTC
国别 :
美国 (US)
星等 :
--
轨道信息
数据来源 国际轨道数据
星历时间: 2025-11-03T09:12:34+0800
1天前
查看轨道信息
半长轴: 6937.212km
偏心率: 0.0001168
轨道倾角: 43.004°
近地点辐角 263.460°
升交点赤经 307.060°
平近点角 96.611°
近地点: 558.266km
远地点: 559.888km
周期: 95.838分钟
每日圈数: 15.025377
详细信息
固有亮度:
5
最大亮度:
2.5
卫星平台:
Starlink v1.5
覆盖范围:
全球
运营商:
太空探索技术公司
运营商所在国:
美国
制造商(研发单位):
太空探索技术公司
制造商所在国:
美国
使用方式:
暂无
卫星简介
星链(Starlink)计划是由太空探索技术公司(SpaceX)提出的一个巨型低轨卫星互联网星座项目,计划在2019年至2024年间在太空搭建由约1.2万颗卫星组成的“星链”网络,其中1584颗将部署在地球上空550千米处的近地轨道,并从2020年开始工作。该卫星仍在工作。
2D轨道图
3D轨道图
轨道高度分析图
轨道倾角分析图
轨道综合分析图
查看轨道综合分析图